Regional Weather Roundup
Issued by NWS Cleveland, OH

Home | Current Version | Previous Version | Text Only | Print | Product List | Glossary Off
Versions: 1 2 3 4 5 6 7 8 9 10 11 12 13 14 15 16 17 18 19 20 21 22 23 24 25 26 27 28 29 30 31 32 33 34 35 36 37 38 39 40 41 42 43 44 45 46 47 48 49 50

000
ASUS41 KCLE 250412
RWRCLE
OHIO REGIONAL WEATHER ROUNDUP
NATIONAL WEATHER SERVICE WILMINGTON, OH
1200 AM EDT SUN SEP 25 2016

NOTE: "FAIR" INDICATES FEW OR NO CLOUDS BELOW 12,000 FEET WITH NO
SIGNIFICANT WEATHER AND/OR OBSTRUCTIONS TO VISIBILITY.

OHZ001>008-015>018-024>027-034-035-043-044-250500-
   NORTHWEST OHIO

CITY           SKY/WX    TMP DP  RH WIND       PRES   REMARKS
DEFIANCE       FAIR      60  52  74 E3        30.20R
FINDLAY        FAIR      60  50  69 E7        30.19R
TOLEDO EXPRESS FAIR      55  55 100 CALM      30.20S
TOLEDO EXEC    FAIR      58  54  86 CALM      30.21R
LIMA           FAIR      59  53  80 E8        30.19R
$$

OHZ009>014-019>023-028>033-038-089-250500-
   NORTHEAST OHIO

CITY           SKY/WX    TMP DP  RH WIND       PRES   REMARKS
CLE-HOPKINS    FAIR      59  45  59 E8        30.23S
CLE-LAKEFRONT  FAIR      60  46  59 E8        30.21S
CUY CO. ARPT   NOT AVBL
LORAIN-ELYRIA  FAIR      53  45  74 E6        30.21S
ASHTABULA      FAIR      48  47  96 CALM      30.23S
AKRON-CANTON   FAIR      54  46  74 NE7       30.21R
WOOSTER        FAIR      53  48  83 E3        30.21R
MANSFIELD      FAIR      54  50  86 NE7       30.20R
YOUNGSTOWN     FAIR      51  46  83 E7        30.21S
$$

OHZ042-051>053-060>062-070>072-077>081-250500-
  SOUTHWEST OHIO

CITY           SKY/WX    TMP DP  RH WIND       PRES   REMARKS
CINC-COVINGTON FAIR      72  65  78 E5        30.13R
CINC-LUNKEN    FAIR      67  67 100 CALM      30.13R
HAMILTON       FAIR      67  63  87 E5        30.14R
DAYTON         FAIR      64  57  78 NE7       30.17R
WRIGHT-PAT AFB CLEAR     65  58  76 NE8       30.15R
DAYTON GENERAL FAIR      67  57  70 NE8       30.14R
WILMINGTON     FAIR      65  59  81 NE7       30.14S
$$

OHZ036-037-039>041-045>050-054>059-063>069-073>076-082>088-250500-
  CENTRAL AND SOUTHEAST OHIO

CITY           SKY/WX    TMP DP  RH WIND       PRES   REMARKS
COLUMBUS       FAIR      63  56  78 NE6       30.16R
OSU AIRPORT    FAIR      62  54  74 NE7       30.17R
BOLTON FIELD   FAIR      63  55  76 NE6       30.17R
RICKENBACK AFB FAIR      63  55  77 NE9       30.15S
NEWARK         FAIR      62  54  74 N3        30.17R
MARION         FAIR      56  51  84 NE6       30.19R
LANCASTER      FAIR      62  56  80 N5        30.16R
ZANESVILLE     FAIR      61  53  75 NE3       30.17R
NEW PHILLY     FAIR      58  49  72 CALM      30.20R
$$



USA.gov is the U.S. government's official web portal to all federal, state and local government web resources and services.